Flag for U.S.A. Weather past 2 weeks in Freehold, New Jersey, U.S.A.

Now
73 °F

Overcast.


Feels Like: 76 °F
Forecast: 61 / 77 °F
Wind: 12 mph from East

Location: Belmar-Farmdale

Current Time: Sep 4, 2015 at 9:54:40 PM

Latest Report: Sep 4, 2015 at 9:15 PM


Visibility: 10 mi

Pressure: 30.17 "Hg

Humidity: 69%

Dew point: 63 °F

Location of FreeholdLocation

Historic Weather in Freehold — Graph

°F

Freehold temperature yesterday

Maximum temperature yesterday: 90 °F (at 1:55 PM)
Minimum temperature yesterday: 68 °F (at 6:35 AM)
Average temperature yesterday: 78 °F

Past Weeks' High & Low Weather Summary

 TemperatureHumidityPressure
High90 °F (Aug 30, 2:35 PM)88% (Aug 24, 6:35 AM)30.23 "Hg (Aug 24, 6:35 AM)
Low57 °F (Aug 28, 3:55 AM)37% (Aug 22, 4:15 PM)29.82 "Hg (Aug 25, 4:55 PM)
Average75 °F63%30.02 "Hg
* Reported Aug 20 8:15 PM — Sep 4 8:55 PM, Freehold, Weather by CustomWeather, © 2015

Note: Actual official high and low records may vary slightly from our data, if they occured in-between our weather recording intervals... More about our weather records

Advertising

Freehold weather history for previous 24 hours

 ConditionsComfort  
Time TempWeatherWind HumidityBarometerVisibility
8:55 PM
Fri, Sep 4
73 °FOvercast.9 mph69%30.17 "Hg10 mi
8:35 PM73 °FOvercast.12 mph69%30.16 "Hg10 mi
8:15 PM73 °FOvercast.14 mph69%30.15 "Hg10 mi
7:55 PM73 °FOvercast.13 mph69%30.14 "Hg10 mi
7:35 PM73 °FPartly sunny.8 mph69%30.13 "Hg10 mi
7:15 PM73 °FPassing clouds.15 mph69%30.13 "Hg10 mi
6:55 PM73 °FSunny.13 mph69%30.13 "Hg10 mi
6:35 PM73 °FPassing clouds.10 mph69%30.13 "Hg10 mi
5:35 PM75 °FPartly sunny.14 mph69%30.12 "Hg10 mi
5:15 PM75 °FPartly sunny.14 mph69%30.11 "Hg10 mi
4:55 PM75 °FPartly sunny.12 mph69%30.11 "Hg10 mi
4:35 PM75 °FPartly sunny.13 mph69%30.11 "Hg9 mi
4:15 PM75 °FMostly cloudy.15 mph69%30.11 "Hg9 mi
3:55 PM77 °FMostly cloudy.16 mph69%30.11 "Hg9 mi
3:35 PM77 °FMostly cloudy.14 mph69%30.11 "Hg9 mi
3:15 PM75 °FMostly cloudy.13 mph74%30.11 "Hg9 mi
2:55 PM75 °FMostly cloudy.15 mph69%30.10 "Hg9 mi
2:35 PM75 °FMostly cloudy.13 mph69%30.11 "Hg8 mi
2:15 PM75 °FMostly cloudy.13 mph74%30.11 "Hg8 mi
1:55 PM75 °FOvercast.12 mph74%30.10 "Hg8 mi
1:35 PM75 °FMostly cloudy.12 mph74%30.10 "Hg8 mi
1:15 PM75 °FMostly cloudy.15 mph74%30.10 "Hg8 mi
12:55 PM75 °FMore clouds than sun.13 mph74%30.10 "Hg8 mi
12:15 PM75 °FMostly cloudy.13 mph74%30.09 "Hg8 mi
11:55 AM77 °FMostly cloudy.17 mph69%30.09 "Hg8 mi
11:35 AM75 °FMostly cloudy.12 mph74%30.08 "Hg8 mi
11:15 AM75 °FLow clouds.15 mph74%30.08 "Hg8 mi
10:55 AM75 °FMostly cloudy.13 mph74%30.07 "Hg9 mi
10:35 AM79 °FMostly cloudy.14 mph65%30.06 "Hg8 mi
10:15 AM79 °FPartly sunny.14 mph65%30.04 "Hg7 mi
9:55 AM79 °FMostly cloudy.14 mph70%30.04 "Hg5 mi
9:35 AM77 °FPartly sunny.10 mph74%30.04 "Hg5 mi
9:15 AM77 °FPartly sunny.12 mph69%30.03 "Hg6 mi
8:55 AM77 °FPassing clouds.8 mph69%30.02 "Hg8 mi
8:35 AM77 °FSunny.10 mph69%30.01 "Hg9 mi
8:15 AM75 °FSunny.9 mph69%30.01 "Hg8 mi
7:55 AM75 °FSunny.9 mph69%30.00 "Hg7 mi
7:35 AM73 °FSunny.7 mph74%30.00 "Hg6 mi
7:15 AM73 °FClear.5 mph74%29.99 "Hg5 mi
6:55 AM72 °FClear.5 mph78%29.98 "Hg5 mi
6:35 AM72 °FClear.3 mph78%29.96 "Hg6 mi
6:15 AM72 °FClear.3 mph78%29.95 "Hg8 mi
5:55 AM73 °FClear.3 mph69%29.94 "Hg8 mi
5:35 AM73 °FClear.No wind69%29.94 "Hg8 mi
5:15 AM70 °FClear.3 mph78%29.93 "Hg7 mi
4:55 AM72 °FClear.No wind73%29.92 "Hg7 mi
4:35 AM72 °FClear.3 mph73%29.93 "Hg7 mi
4:15 AM72 °FClear.3 mph73%29.92 "Hg7 mi
3:55 AM72 °FClear.5 mph73%29.92 "Hg7 mi
3:35 AM72 °FClear.No wind73%29.92 "Hg7 mi
3:15 AM72 °FClear.No wind73%29.91 "Hg7 mi
2:55 AM73 °FClear.5 mph69%29.91 "Hg7 mi
2:35 AM72 °FClear.No wind73%29.91 "Hg7 mi
2:15 AM72 °FClear.5 mph73%29.91 "Hg7 mi
1:55 AM72 °FClear.No wind73%29.91 "Hg7 mi
1:35 AM73 °FClear.3 mph69%29.91 "Hg7 mi
1:15 AM72 °FClear.No wind73%29.91 "Hg7 mi
12:55 AM72 °FClear.3 mph73%29.91 "Hg7 mi
12:35 AM73 °FClear.3 mph69%29.90 "Hg7 mi
12:15 AM73 °FClear.No wind74%29.90 "Hg8 mi
11:55 PM
Thu, Sep 3
75 °FClear.No wind69%29.90 "Hg8 mi
11:35 PM75 °FClear.No wind69%29.90 "Hg8 mi
11:15 PM75 °FClear.No wind69%29.90 "Hg8 mi
10:55 PM75 °FClear.No wind69%29.89 "Hg8 mi
10:35 PM75 °FClear.No wind69%29.89 "Hg8 mi
10:15 PM77 °FClear.No wind65%29.89 "Hg10 mi
9:55 PM77 °FClear.5 mph65%29.89 "Hg10 mi
9:35 PM77 °FClear.5 mph65%29.89 "Hg10 mi
9:15 PM77 °FClear.5 mph65%29.89 "Hg10 mi
Weather by CustomWeather, © 2015

See weather overviewHow to use our weather pages